• en France
  • Liste des pays
  • À 7 jours
  • Température de l'eau
  • Carte satellitaire
  • Carte météo
  • Widgets météo
  • user-avatar
    Se connecter

    Météo par heure à Yola

    Ce jour, 22 Septembre, Samedi

    Heure Température Précipitation Vent Pression Humidité
    00:00 +33°C° 0 mm 4 m/s 738 mmHg 51%
    01:00 +32°C° 0 mm 4 m/s 737 mmHg 55%
    02:00 +32°C° 0 mm 4 m/s 737 mmHg 60%
    03:00 +30°C° 0 mm 4 m/s 737 mmHg 65%
    04:00 +30°C° 0 mm 4 m/s 737 mmHg 68%
    05:00 +29°C° 0 mm 4 m/s 737 mmHg 71%
    06:00 +29°C° 0 mm 3 m/s 738 mmHg 74%
    07:00 +30°C° 0 mm 4 m/s 738 mmHg 67%
    08:00 +33°C° 0 mm 4 m/s 739 mmHg 61%
    09:00 +35°C° 0 mm 4 m/s 739 mmHg 54%
    10:00 +36°C° 0 mm 4 m/s 739 mmHg 50%
    11:00 +37°C° 0 mm 3 m/s 739 mmHg 45%
    12:00 +39°C° 0 mm 3 m/s 738 mmHg 40%
    13:00 +39°C° 0 mm 2 m/s 737 mmHg 38%
    14:00 +39°C° 0 mm 1 m/s 737 mmHg 36%
    15:00 +40°C° 0 mm 1 m/s 736 mmHg 33%
    16:00 +39°C° 0 mm 1 m/s 736 mmHg 35%
    17:00 +37°C° 0 mm 1 m/s 736 mmHg 37%
    18:00 +37°C° 0 mm 2 m/s 736 mmHg 38%
    19:00 +36°C° 1.4 mm 3 m/s 737 mmHg 43%
    20:00 +35°C° 1.4 mm 4 m/s 737 mmHg 49%
    21:00 +34°C° 1.4 mm 6 m/s 738 mmHg 54%
    22:00 +33°C° 3.3 mm 5 m/s 738 mmHg 58%
    23:00 +32°C° 3.3 mm 5 m/s 738 mmHg 62%

    Demain, 23 Septembre, Dimanche

    Heure Température Précipitation Vent Pression Humidité
    00:00 +30°C° 3.3 mm 5 m/s 738 mmHg 67%
    01:00 +29°C° 0.3 mm 5 m/s 738 mmHg 67%
    02:00 +29°C° 0.3 mm 4 m/s 737 mmHg 67%
    03:00 +28°C° 0.3 mm 4 m/s 737 mmHg 67%
    04:00 +28°C° 0.2 mm 4 m/s 738 mmHg 69%
    05:00 +28°C° 0.2 mm 3 m/s 738 mmHg 71%
    06:00 +28°C° 0.2 mm 3 m/s 738 mmHg 73%
    07:00 +29°C° 0.3 mm 4 m/s 739 mmHg 69%
    08:00 +32°C° 0.3 mm 5 m/s 740 mmHg 66%
    09:00 +33°C° 0.3 mm 5 m/s 740 mmHg 62%
    10:00 +34°C° 0 mm 5 m/s 740 mmHg 57%
    11:00 +36°C° 0 mm 5 m/s 739 mmHg 52%
    12:00 +37°C° 0 mm 5 m/s 739 mmHg 47%
    13:00 +38°C° 0 mm 4 m/s 738 mmHg 45%
    14:00 +38°C° 0 mm 4 m/s 737 mmHg 43%
    15:00 +39°C° 0 mm 3 m/s 737 mmHg 41%
    16:00 +37°C° 0 mm 3 m/s 737 mmHg 45%
    17:00 +36°C° 0 mm 3 m/s 737 mmHg 48%
    18:00 +35°C° 0 mm 3 m/s 737 mmHg 51%
    19:00 +34°C° 0.4 mm 4 m/s 738 mmHg 55%
    20:00 +33°C° 0.4 mm 4 m/s 738 mmHg 60%
    21:00 +32°C° 0.4 mm 5 m/s 739 mmHg 64%
    22:00 +32°C° 0.1 mm 4 m/s 739 mmHg 65%
    23:00 +32°C° 0.1 mm 4 m/s 739 mmHg 66%

    Après-demain, 24 Septembre, Lundi

    Heure Température Précipitation Vent Pression Humidité
    00:00 +30°C° 0.1 mm 3 m/s 738 mmHg 66%
    01:00 +30°C° 0 mm 4 m/s 738 mmHg 67%
    02:00 +30°C° 0 mm 4 m/s 738 mmHg 68%
    03:00 +30°C° 0 mm 5 m/s 737 mmHg 68%
    04:00 +29°C° 0 mm 5 m/s 738 mmHg 71%
    05:00 +29°C° 0 mm 4 m/s 738 mmHg 74%
    06:00 +29°C° 0 mm 4 m/s 738 mmHg 77%
    07:00 +30°C° 0 mm 4 m/s 739 mmHg 71%
    08:00 +33°C° 0 mm 5 m/s 740 mmHg 64%
    09:00 +34°C° 0 mm 5 m/s 740 mmHg 58%
    10:00 +36°C° 0 mm 5 m/s 740 mmHg 52%
    11:00 +37°C° 0 mm 5 m/s 739 mmHg 47%
    12:00 +40°C° 0 mm 5 m/s 739 mmHg 41%
    13:00 +40°C° 0 mm 4 m/s 738 mmHg 39%
    14:00 +40°C° 0 mm 3 m/s 737 mmHg 38%
    15:00 +40°C° 0 mm 2 m/s 737 mmHg 36%
    16:00 +39°C° 0 mm 2 m/s 737 mmHg 38%
    17:00 +38°C° 0 mm 3 m/s 737 mmHg 40%
    18:00 +37°C° 0 mm 3 m/s 736 mmHg 43%
    19:00 +36°C° 0 mm 3 m/s 737 mmHg 45%
    20:00 +35°C° 0 mm 3 m/s 737 mmHg 48%
    21:00 +34°C° 0 mm 3 m/s 738 mmHg 50%
    22:00 +34°C° 0.1 mm 4 m/s 738 mmHg 54%
    23:00 +33°C° 0.1 mm 4 m/s 738 mmHg 57%

    25 Septembre, Mardi

    Heure Température Précipitation Vent Pression Humidité
    00:00 +32°C° 0.1 mm 5 m/s 737 mmHg 61%
    01:00 +32°C° 0 mm 5 m/s 737 mmHg 64%
    02:00 +30°C° 0 mm 5 m/s 737 mmHg 67%
    03:00 +30°C° 0 mm 4 m/s 736 mmHg 70%
    04:00 +29°C° 0 mm 4 m/s 737 mmHg 72%
    05:00 +29°C° 0 mm 4 m/s 737 mmHg 75%
    06:00 +28°C° 0 mm 3 m/s 738 mmHg 77%
    07:00 +30°C° 0 mm 4 m/s 738 mmHg 72%
    08:00 +32°C° 0 mm 5 m/s 739 mmHg 67%
    09:00 +34°C° 0 mm 6 m/s 740 mmHg 62%
    10:00 +35°C° 0 mm 5 m/s 739 mmHg 56%
    11:00 +37°C° 0 mm 5 m/s 739 mmHg 51%
    12:00 +38°C° 0 mm 4 m/s 738 mmHg 45%
    13:00 +38°C° 0 mm 3 m/s 737 mmHg 42%
    14:00 +39°C° 0 mm 3 m/s 737 mmHg 40%
    15:00 +39°C° 0 mm 2 m/s 736 mmHg 37%
    16:00 +38°C° 0 mm 2 m/s 736 mmHg 41%
    17:00 +37°C° 0 mm 3 m/s 736 mmHg 44%
    18:00 +36°C° 0 mm 4 m/s 737 mmHg 48%
    19:00 +35°C° 0 mm 4 m/s 737 mmHg 52%
    20:00 +34°C° 0 mm 4 m/s 738 mmHg 56%
    21:00 +34°C° 0 mm 5 m/s 738 mmHg 60%
    22:00 +33°C° 0 mm 5 m/s 738 mmHg 63%
    23:00 +33°C° 0 mm 5 m/s 738 mmHg 65%

    26 Septembre, Mercredi

    Heure Température Précipitation Vent Pression Humidité
    00:00 +32°C° 0 mm 5 m/s 737 mmHg 67%
    01:00 +32°C° 0 mm 5 m/s 737 mmHg 68%
    02:00 +30°C° 0 mm 4 m/s 737 mmHg 69%
    03:00 +30°C° 0 mm 4 m/s 737 mmHg 71%
    04:00 +29°C° 0 mm 4 m/s 737 mmHg 72%
    05:00 +29°C° 0 mm 4 m/s 737 mmHg 73%
    06:00 +29°C° 0 mm 3 m/s 738 mmHg 74%
    07:00 +30°C° 0 mm 3 m/s 738 mmHg 68%
    08:00 +33°C° 0 mm 3 m/s 739 mmHg 62%
    09:00 +34°C° 0 mm 3 m/s 739 mmHg 56%
    10:00 +35°C° 0 mm 3 m/s 739 mmHg 51%
    11:00 +37°C° 0 mm 3 m/s 738 mmHg 47%
    12:00 +38°C° 0 mm 3 m/s 737 mmHg 42%
    13:00 +38°C° 0 mm 2 m/s 737 mmHg 40%
    14:00 +39°C° 0 mm 2 m/s 736 mmHg 38%
    15:00 +40°C° 0 mm 1 m/s 736 mmHg 35%
    16:00 +39°C° 0 mm 2 m/s 736 mmHg 38%
    17:00 +38°C° 0 mm 2 m/s 736 mmHg 40%
    18:00 +37°C° 0 mm 3 m/s 737 mmHg 42%
    19:00 +36°C° 0 mm 4 m/s 737 mmHg 45%
    20:00 +35°C° 0 mm 4 m/s 737 mmHg 49%
    21:00 +35°C° 0 mm 5 m/s 738 mmHg 52%
    22:00 +34°C° 0 mm 5 m/s 737 mmHg 55%
    23:00 +33°C° 0 mm 5 m/s 737 mmHg 58%

    27 Septembre, Jeudi

    Heure Température Précipitation Vent Pression Humidité
    00:00 +32°C° 0 mm 5 m/s 737 mmHg 61%
    01:00 +32°C° 0 mm 5 m/s 737 mmHg 62%
    02:00 +32°C° 0 mm 5 m/s 737 mmHg 63%
    03:00 +30°C° 0 mm 5 m/s 736 mmHg 65%
    04:00 +30°C° 0 mm 4 m/s 737 mmHg 67%
    05:00 +30°C° 0 mm 4 m/s 737 mmHg 69%
    06:00 +29°C° 0 mm 3 m/s 738 mmHg 71%
    07:00 +32°C° 0 mm 4 m/s 738 mmHg 66%
    08:00 +33°C° 0 mm 4 m/s 739 mmHg 61%
    09:00 +35°C° 0 mm 5 m/s 739 mmHg 55%
    10:00 +36°C° 0 mm 4 m/s 739 mmHg 51%
    11:00 +37°C° 0 mm 4 m/s 738 mmHg 47%
    12:00 +40°C° 0 mm 4 m/s 738 mmHg 42%
    13:00 +39°C° 0 mm 3 m/s 737 mmHg 40%
    14:00 +40°C° 0 mm 3 m/s 736 mmHg 37%
    15:00 +40°C° 0 mm 2 m/s 736 mmHg 34%
    16:00 +39°C° 0 mm 2 m/s 736 mmHg 37%
    17:00 +38°C° 0 mm 3 m/s 736 mmHg 40%
    18:00 +37°C° 0 mm 3 m/s 736 mmHg 42%
    19:00 +36°C° 0 mm 4 m/s 737 mmHg 46%
    20:00 +35°C° 0 mm 4 m/s 737 mmHg 49%
    21:00 +35°C° 0 mm 5 m/s 738 mmHg 53%
    22:00 +34°C° 0 mm 5 m/s 738 mmHg 55%
    23:00 +33°C° 0 mm 6 m/s 737 mmHg 58%
    Voir plus